Wind_Speed
19 18 16 15 14 13 11 10 9 10 9 8 8 9 9 8 8 8 9 8 8 9 9 9 9 10 10 11 12 12 12 12 13 14 15 15 16 16 16 16 16 15 15 15 14 14 14 14 14
21 20 19 17 16 14 13 12 11 11 11 10 10 10 12 10 10 10 10 10 9 10 10 10 11 11 12 12 13 13 13 14 14 15 16 16 16 17 16 16 16 16 16 16 16 15 15 15 15
22 21 20 19 17 16 15 14 13 13 14 12 12 13 13 13 11 12 11 11 11 11 11 11 12 13 13 14 14 14 14 15 16 16 17 17 17 17 17 17 17 17 17 17 17 16 16 16 16
23 23 22 20 19 17 17 15 13 14 16 14 13 13 14 14 14 13 13 12 12 12 12 13 14 14 14 15 15 15 15 16 17 17 17 17 17 18 18 18 18 18 18 17 17 17 17 17 17
23 23 22 20 20 19 19 17 15 16 15 16 15 14 14 14 15 14 14 14 13 14 14 15 15 15 15 15 15 15 16 17 18 18 18 18 18 18 18 18 18 18 18 18 17 17 17 18 18
23 22 22 21 21 21 20 19 17 17 19 18 17 16 15 15 15 14 15 15 15 15 15 16 16 16 16 16 16 16 17 18 19 19 19 19 18 18 19 19 19 19 19 18 18 18 18 18 19
23 22 21 21 21 22 20 19 17 16 16 18 19 18 17 18 17 16 15 15 15 16 16 17 17 17 17 17 17 18 18 19 19 19 19 19 19 18 19 19 20 20 20 19 19 19 19 19 20
23 23 22 21 21 21 21 20 19 18 18 19 21 19 18 20 18 16 16 16 16 16 17 17 17 17 18 18 18 18 18 18 19 19 19 19 19 19 19 19 20 20 20 20 20 19 20 21 21
23 23 22 23 22 21 21 20 20 20 21 22 22 21 20 20 18 17 16 15 16 17 17 18 18 18 18 18 18 18 18 18 18 19 19 19 20 20 20 21 21 21 21 21 20 20 20 21 22
23 23 23 23 23 22 21 21 21 22 22 22 21 21 21 21 20 18 16 15 15 17 18 19 18 18 17 18 18 18 18 18 18 19 20 21 22 22 22 22 22 22 22 22 22 22 22 22 23
23 22 23 24 25 24 23 22 21 23 23 22 21 21 21 21 22 19 16 14 15 17 18 17 17 17 17 18 18 18 19 19 19 20 21 21 22 22 22 23 23 23 24 24 24 23 23 23 24
23 23 24 23 24 24 23 23 23 23 24 23 21 21 21 21 20 20 19 17 17 18 18 17 17 18 18 19 18 19 19 19 20 21 21 21 21 22 23 24 25 25 25 25 25 25 25 24 25
22 22 22 22 23 22 23 24 25 24 24 24 22 22 22 21 20 18 17 17 18 17 17 17 17 18 18 19 19 19 20 20 20 21 21 22 23 23 24 24 25 26 26 27 27 26 26 26 25
20 22 21 21 21 22 22 22 23 23 23 23 23 22 22 20 20 19 18 19 19 19 18 19 19 18 18 19 19 19 20 21 22 23 23 24 25 25 25 25 26 27 28 29 28 28 28 28 27
21 21 19 19 20 20 21 20 20 21 21 22 22 22 22 21 19 19 20 20 20 19 19 18 18 18 18 19 20 21 22 23 23 24 25 25 26 26 26 27 27 28 29 29 29 29 29 28 28
20 20 18 17 18 19 20 19 18 18 19 20 21 21 21 20 20 20 20 20 20 19 18 18 18 18 19 20 20 22 23 23 24 25 26 26 27 27 27 28 28 29 30 30 30 30 29 29 28
17 17 17 17 18 18 19 18 18 18 18 19 20 21 20 20 19 19 20 19 20 19 19 18 19 19 20 21 21 22 24 24 25 25 26 26 27 28 28 28 29 30 30 30 30 30 30 29 29
15 16 17 16 17 17 17 18 18 18 18 18 19 19 18 19 18 19 19 19 20 20 20 20 20 20 20 21 22 23 24 25 26 26 26 27 28 29 28 28 28 28 28 28 29 30 30 30 29
15 16 16 16 17 17 18 17 18 18 18 17 17 18 19 19 18 19 19 20 21 21 21 19 19 20 21 21 22 24 25 26 27 27 27 27 28 29 28 28 28 29 29 28 28 28 29 30 30
14 15 14 15 17 18 19 18 18 19 19 18 17 17 17 18 19 19 20 19 19 18 18 18 18 19 21 22 23 24 25 27 28 28 28 27 27 28 28 28 30 30 29 28 29 29 29 29 30
13 14 14 14 15 16 17 17 17 18 18 18 17 16 16 16 18 18 18 19 19 18 18 19 19 20 21 22 23 25 26 27 27 28 27 27 28 28 29 29 30 30 29 29 29 29 29 29 29
12 12 13 13 14 14 16 17 16 17 18 18 16 16 16 17 17 18 18 18 19 19 21 20 20 20 21 22 24 25 25 26 27 28 29 29 29 28 29 30 30 28 28 28 28 28 28 27 27
11 12 13 14 16 15 16 17 15 16 16 16 17 17 17 17 18 19 19 18 18 19 20 20 20 20 21 23 24 25 25 26 27 28 28 28 27 28 28 29 28 28 27 27 27 26 26 26 25
11 13 15 16 17 18 16 18 16 16 16 16 16 15 15 16 17 18 18 17 19 20 20 20 20 21 22 22 23 24 25 25 26 26 26 26 27 27 27 26 26 26 25 25 25 25 24 24 24
10 12 14 15 17 17 17 18 17 17 16 16 15 14 14 16 16 18 17 19 20 20 20 20 20 21 21 22 23 24 24 24 25 25 25 25 26 26 25 24 24 24 24 23 23 22 22 23 23
10 12 14 16 16 16 16 18 18 17 16 15 13 13 14 15 17 17 17 18 19 19 19 20 20 21 22 22 23 23 23 23 23 25 25 25 25 24 23 23 24 23 23 22 22 22 22 22 22
11 12 14 16 16 16 16 17 18 18 17 16 15 15 16 17 16 17 17 18 18 17 18 19 20 20 21 21 22 22 22 23 24 25 24 24 23 22 22 23 23 23 23 22 22 21 21 21 21
13 14 15 16 17 17 16 16 16 16 17 17 16 16 16 17 18 17 17 18 18 17 17 18 19 19 20 20 20 21 21 23 24 24 23 23 23 23 23 23 23 23 22 22 21 21 20 20 21
15 16 17 18 19 19 19 17 17 17 17 16 17 17 17 18 18 17 17 18 18 17 17 18 18 19 19 20 20 20 21 23 23 23 22 22 22 22 22 22 22 22 21 21 21 20 20 20 20
16 17 18 19 19 20 22 20 18 19 18 17 17 17 17 17 17 16 16 17 17 16 16 17 17 18 19 20 20 20 22 22 23 22 22 22 22 22 22 22 21 21 21 20 20 20 20 19 18
Wind_Direction
217 215 213 211 210 209 212 215 220 226 237 248 267 279 284 293 301 299 294 295 295 296 299 296 297 299 299 298 298 298 297 297 298 298 299 299 299 298 296 295 294 292 290 288 287 286 285 284 283
219 217 215 215 214 211 214 217 224 232 243 252 262 272 281 288 294 294 293 294 295 296 296 295 296 298 299 298 298 297 296 297 296 296 297 297 297 296 294 292 291 290 288 286 284 283 282 282 281
220 219 217 216 213 213 217 221 230 242 252 252 257 265 275 281 285 287 291 294 295 296 297 296 296 298 300 299 296 295 294 294 294 295 296 295 294 292 291 289 288 287 286 284 283 281 280 279 279
219 219 219 216 212 215 218 226 237 248 255 253 255 263 271 276 283 285 289 291 292 292 294 295 296 296 298 298 296 294 294 295 294 294 294 293 292 292 289 286 287 286 284 283 281 280 278 277 277
219 218 218 214 213 216 219 228 239 248 254 263 261 266 270 274 279 281 285 289 291 290 291 295 296 295 296 295 294 293 293 295 294 295 295 293 292 291 288 286 286 285 285 284 282 281 279 278 278
220 217 216 212 214 217 220 228 238 250 258 264 267 274 275 274 276 279 281 286 289 290 292 294 295 297 297 295 293 292 292 294 294 295 295 293 292 290 287 286 286 286 284 282 282 281 279 277 277
219 217 213 211 214 216 218 229 240 254 262 263 270 276 279 277 277 276 280 286 288 290 292 293 294 296 295 294 293 292 293 292 293 293 293 293 291 291 289 287 286 285 283 282 281 280 279 277 276
218 215 211 212 215 218 221 231 243 253 264 270 274 275 279 280 273 272 275 283 288 289 291 294 293 294 296 295 293 293 293 292 291 292 293 292 292 292 289 287 286 285 285 284 282 281 281 280 278
218 214 211 214 216 218 224 232 242 250 263 267 272 278 279 280 278 275 274 282 285 285 287 290 292 294 293 293 292 293 294 294 294 295 293 290 290 290 289 289 287 286 285 284 282 281 281 281 278
216 212 212 215 219 219 226 235 243 251 259 264 269 272 273 275 277 281 279 280 281 285 288 290 295 296 294 293 292 292 292 292 293 294 292 290 290 289 288 288 287 286 285 283 283 281 280 279 277
213 212 211 215 219 224 230 237 247 253 257 266 271 272 271 273 275 280 283 282 282 284 290 295 298 297 293 290 290 289 289 289 290 293 292 291 292 291 289 289 288 286 285 284 282 280 279 278 276
211 210 210 212 220 227 231 237 246 254 259 265 270 274 274 275 278 279 282 284 285 285 289 293 297 295 291 287 286 287 288 291 292 293 293 293 293 293 291 289 289 287 285 284 282 280 278 278 276
211 209 212 216 222 226 232 241 248 256 259 264 269 273 275 277 281 281 282 283 286 287 286 287 292 293 291 289 287 289 293 293 293 294 294 294 294 294 294 293 292 290 287 284 281 279 278 278 277
210 210 215 222 226 231 237 244 248 254 259 262 267 274 276 277 279 278 283 287 285 286 286 286 291 292 290 290 290 291 293 294 295 295 295 295 294 294 294 294 294 291 289 286 283 281 278 277 276
212 214 217 224 231 236 242 249 253 256 259 263 268 274 274 276 280 279 280 285 285 284 285 286 289 291 291 293 294 294 295 296 297 298 297 297 298 298 296 294 293 292 290 288 285 281 278 277 275
215 218 220 226 234 238 245 251 255 259 264 267 269 273 274 275 277 281 282 282 283 284 284 287 290 293 295 296 297 299 299 300 300 300 298 298 300 300 299 296 295 295 293 289 285 281 279 277 275
218 223 227 230 234 239 248 255 259 264 264 265 266 269 273 272 275 280 280 280 282 283 282 284 291 294 297 298 300 300 300 301 302 302 300 301 302 302 302 299 297 297 295 291 286 283 280 277 275
218 224 229 234 235 240 247 258 261 262 260 261 266 270 276 274 277 281 281 282 282 284 286 288 290 293 295 298 299 300 302 303 304 302 300 302 303 303 303 301 299 299 297 293 289 285 281 279 276
224 227 231 235 236 241 246 256 262 262 264 267 269 273 277 280 278 279 281 284 287 284 286 287 290 292 294 297 300 301 302 303 304 302 302 303 304 304 304 303 302 300 297 293 291 288 283 281 278
227 231 232 233 239 244 248 256 262 264 268 275 278 277 276 278 284 284 281 284 287 286 283 286 289 292 297 300 302 302 303 303 303 303 302 303 304 304 305 303 301 298 295 293 291 289 285 283 279
232 235 236 238 241 244 251 256 261 264 272 277 279 280 280 278 281 280 277 279 286 290 289 287 290 292 295 299 301 303 304 304 305 305 305 304 303 304 303 302 300 298 295 294 292 290 287 285 282
241 244 240 246 251 250 250 258 255 263 269 275 277 279 283 281 283 284 282 283 285 288 290 290 291 293 296 299 302 304 306 305 306 306 305 305 304 304 303 302 300 298 297 295 294 292 288 286 282
252 253 252 252 254 258 258 262 261 262 269 274 278 279 282 282 286 287 284 282 285 290 291 290 290 294 297 301 303 306 308 307 307 307 307 305 304 304 305 303 302 302 300 298 295 293 290 288 285
261 256 255 255 255 259 259 261 265 267 273 276 280 283 284 285 290 292 291 290 292 293 291 290 292 298 300 302 304 307 308 309 309 308 307 306 306 307 308 307 307 306 303 300 297 294 292 289 287
265 266 261 257 258 261 266 265 269 270 272 276 281 283 284 286 291 295 298 298 296 295 293 293 294 298 301 303 305 308 309 309 309 309 310 309 310 312 313 311 310 308 305 303 302 298 295 291 289
267 273 269 268 269 269 269 269 271 270 273 278 281 281 284 288 292 295 298 299 296 294 293 293 295 299 302 305 307 308 309 310 310 312 312 313 314 315 316 314 314 312 309 306 303 301 297 294 292
268 268 273 274 274 276 277 277 276 273 273 279 279 283 287 291 293 296 297 297 295 292 292 294 296 300 302 304 305 307 309 311 312 313 314 315 316 317 318 318 316 315 313 310 307 304 300 297 295
261 268 272 277 283 288 289 286 286 280 276 278 286 290 292 292 293 296 295 296 297 297 295 297 299 302 305 305 305 307 309 311 313 314 316 315 314 315 317 319 319 317 315 313 310 308 304 300 296
264 267 272 278 283 287 290 296 295 287 280 280 286 290 293 294 296 297 295 297 296 296 296 300 302 304 305 306 306 308 311 313 314 315 315 314 314 315 316 318 318 318 316 315 312 309 307 305 300
267 270 273 276 281 284 290 296 296 291 288 286 288 288 291 290 294 297 296 298 299 298 300 303 303 304 305 306 307 310 312 314 317 314 311 311 313 315 316 318 320 318 317 316 314 312 309 306 303
Height
5902 5904 5906 5908 5910 5911 5910 5911 5911 5911 5911 5911 5912 5912 5913 5914 5915 5917 5914 5912 5911 5910 5910 5909 5908 5908 5907 5906 5906 5905 5904 5903 5902 5901 5900 5899 5897 5896 5895 5893 5892 5890 5889 5888 5886 5885 5884 5883 5881
5899 5901 5904 5906 5907 5908 5909 5909 5909 5909 5909 5909 5910 5911 5911 5912 5913 5912 5911 5910 5910 5909 5908 5908 5907 5906 5906 5905 5904 5903 5902 5901 5900 5899 5898 5897 5895 5894 5893 5891 5890 5888 5887 5885 5884 5883 5882 5880 5879
5896 5898 5901 5903 5904 5906 5907 5907 5908 5907 5907 5907 5908 5909 5910 5911 5911 5910 5909 5909 5908 5907 5907 5906 5906 5905 5904 5903 5902 5901 5900 5899 5898 5897 5896 5894 5893 5892 5890 5889 5887 5886 5884 5883 5881 5880 5879 5878 5877
5893 5895 5898 5901 5902 5903 5904 5904 5904 5904 5904 5905 5905 5906 5908 5909 5909 5908 5907 5907 5906 5906 5905 5905 5904 5903 5902 5901 5900 5899 5898 5897 5896 5894 5893 5892 5890 5889 5888 5886 5885 5883 5882 5880 5879 5878 5877 5875 5874
5889 5892 5895 5897 5899 5900 5901 5900 5901 5902 5902 5902 5903 5903 5904 5906 5906 5906 5905 5905 5904 5904 5903 5902 5902 5901 5900 5899 5898 5897 5895 5894 5893 5892 5890 5889 5888 5886 5885 5883 5882 5880 5879 5878 5876 5875 5874 5872 5871
5886 5889 5892 5894 5895 5897 5898 5897 5898 5899 5899 5900 5901 5902 5901 5902 5903 5903 5903 5903 5902 5901 5901 5900 5899 5898 5897 5896 5895 5894 5892 5891 5890 5889 5887 5886 5884 5883 5881 5880 5878 5877 5876 5874 5873 5872 5870 5869 5868
5883 5885 5887 5890 5892 5894 5895 5895 5894 5895 5895 5897 5898 5899 5899 5900 5901 5900 5900 5900 5899 5899 5898 5897 5896 5895 5894 5893 5892 5890 5889 5888 5886 5885 5884 5882 5881 5879 5878 5876 5875 5873 5872 5870 5869 5868 5866 5865 5864
5878 5882 5884 5887 5889 5890 5891 5891 5892 5893 5892 5893 5894 5895 5896 5897 5897 5897 5897 5897 5896 5896 5895 5894 5893 5892 5891 5890 5888 5887 5886 5885 5883 5881 5880 5878 5877 5875 5874 5872 5871 5869 5868 5866 5865 5864 5862 5861 5860
5874 5879 5881 5883 5885 5887 5887 5888 5889 5889 5890 5890 5891 5892 5893 5894 5893 5893 5894 5893 5893 5893 5892 5891 5890 5889 5887 5886 5885 5884 5883 5881 5879 5878 5876 5875 5873 5871 5869 5868 5866 5865 5863 5861 5860 5859 5858 5856 5855
5871 5875 5879 5881 5882 5884 5884 5885 5886 5887 5887 5886 5887 5889 5890 5890 5890 5890 5890 5890 5890 5890 5889 5888 5887 5886 5884 5883 5882 5881 5879 5877 5876 5874 5872 5871 5869 5867 5865 5863 5862 5860 5858 5857 5856 5854 5853 5851 5850
5868 5872 5875 5876 5878 5879 5880 5882 5882 5884 5884 5884 5885 5886 5887 5887 5887 5887 5887 5887 5886 5886 5885 5884 5884 5883 5881 5880 5878 5877 5875 5873 5871 5870 5868 5866 5864 5862 5860 5859 5857 5855 5853 5851 5850 5848 5847 5846 5844
5864 5868 5870 5872 5874 5876 5877 5878 5879 5880 5881 5883 5882 5883 5882 5882 5882 5883 5883 5883 5882 5882 5882 5881 5880 5879 5877 5876 5874 5873 5871 5869 5867 5865 5863 5861 5859 5857 5855 5853 5851 5849 5847 5846 5844 5842 5841 5839 5838
5861 5864 5867 5869 5871 5872 5873 5874 5875 5876 5878 5879 5879 5879 5879 5879 5878 5878 5878 5878 5878 5878 5877 5877 5876 5875 5873 5872 5870 5868 5867 5865 5863 5861 5858 5856 5854 5852 5850 5848 5845 5843 5841 5839 5837 5836 5834 5833 5831
5859 5861 5864 5866 5868 5869 5870 5871 5873 5873 5875 5876 5876 5876 5875 5875 5874 5875 5875 5875 5874 5873 5873 5873 5871 5870 5869 5868 5866 5864 5862 5860 5858 5856 5853 5851 5848 5846 5844 5841 5839 5836 5834 5831 5829 5828 5826 5825 5824
5856 5859 5861 5863 5864 5866 5867 5868 5870 5870 5871 5873 5873 5872 5871 5871 5870 5870 5870 5870 5869 5868 5868 5867 5866 5866 5864 5863 5861 5860 5857 5855 5853 5850 5847 5845 5842 5839 5837 5835 5832 5829 5826 5824 5821 5819 5818 5817 5815
5854 5857 5859 5861 5862 5863 5865 5865 5866 5867 5868 5868 5868 5868 5867 5867 5867 5866 5866 5865 5864 5864 5863 5862 5862 5861 5859 5858 5856 5854 5852 5850 5847 5844 5841 5838 5836 5833 5830 5828 5825 5821 5818 5815 5813 5811 5809 5808 5807
5853 5855 5857 5858 5859 5859 5860 5860 5861 5862 5863 5863 5864 5864 5863 5863 5862 5862 5862 5862 5860 5859 5859 5858 5857 5856 5854 5853 5850 5848 5846 5844 5841 5838 5835 5832 5829 5826 5823 5821 5817 5814 5811 5808 5805 5803 5801 5800 5799
5851 5852 5854 5855 5855 5856 5856 5857 5858 5858 5858 5859 5859 5859 5859 5858 5858 5857 5857 5857 5855 5854 5853 5853 5852 5851 5849 5848 5846 5843 5841 5838 5835 5832 5829 5826 5823 5820 5816 5813 5810 5806 5803 5800 5797 5795 5793 5792 5790
5848 5849 5851 5852 5852 5853 5853 5853 5854 5853 5854 5855 5854 5854 5854 5854 5853 5853 5852 5852 5850 5849 5849 5848 5847 5846 5844 5842 5840 5838 5835 5832 5829 5826 5822 5819 5816 5813 5809 5806 5802 5799 5796 5792 5790 5787 5785 5783 5782
5845 5846 5847 5849 5849 5849 5849 5850 5850 5850 5850 5850 5850 5849 5849 5849 5849 5848 5848 5848 5845 5844 5842 5842 5842 5840 5839 5837 5835 5832 5829 5826 5823 5819 5816 5813 5809 5806 5802 5799 5795 5791 5788 5785 5782 5780 5777 5775 5774
5843 5844 5844 5845 5846 5846 5846 5847 5847 5847 5846 5845 5845 5846 5845 5845 5844 5843 5843 5843 5841 5840 5839 5838 5837 5836 5834 5832 5830 5827 5823 5820 5816 5813 5809 5806 5802 5798 5795 5792 5788 5784 5781 5778 5775 5772 5769 5767 5765
5840 5841 5841 5842 5842 5842 5843 5843 5844 5843 5843 5842 5841 5842 5842 5841 5840 5839 5838 5838 5837 5836 5835 5833 5833 5831 5829 5827 5824 5821 5817 5814 5810 5807 5803 5799 5795 5792 5788 5784 5780 5777 5773 5770 5767 5764 5761 5759 5757
5838 5838 5838 5838 5838 5839 5839 5839 5841 5839 5839 5839 5838 5838 5838 5838 5837 5836 5834 5833 5833 5831 5830 5829 5827 5825 5823 5821 5818 5815 5811 5808 5804 5801 5797 5792 5789 5785 5781 5777 5773 5769 5766 5762 5759 5756 5754 5752 5750
5835 5836 5835 5835 5835 5836 5836 5836 5836 5836 5835 5835 5834 5833 5834 5834 5833 5832 5830 5829 5828 5827 5825 5824 5822 5820 5818 5815 5812 5809 5806 5802 5799 5795 5791 5787 5783 5779 5774 5770 5766 5762 5759 5756 5752 5749 5747 5744 5742
5833 5833 5833 5832 5832 5832 5832 5831 5832 5831 5831 5831 5830 5830 5830 5830 5829 5827 5825 5824 5823 5822 5820 5818 5816 5814 5812 5809 5807 5804 5800 5797 5793 5790 5786 5782 5777 5773 5769 5765 5761 5757 5753 5750 5746 5743 5740 5738 5736
5830 5831 5831 5829 5829 5829 5828 5827 5828 5827 5827 5827 5826 5826 5826 5825 5824 5823 5821 5819 5818 5817 5815 5813 5811 5809 5807 5804 5801 5798 5795 5792 5788 5785 5781 5777 5772 5768 5764 5760 5756 5752 5748 5744 5741 5738 5735 5732 5730
5827 5827 5827 5826 5825 5824 5824 5824 5823 5823 5823 5823 5822 5822 5820 5820 5819 5818 5816 5815 5813 5812 5810 5808 5806 5804 5801 5799 5796 5793 5790 5786 5783 5779 5775 5771 5767 5763 5759 5755 5751 5747 5743 5739 5736 5732 5729 5726 5724
5825 5824 5824 5823 5821 5821 5820 5820 5820 5819 5819 5819 5818 5817 5815 5815 5814 5813 5811 5810 5808 5806 5804 5803 5800 5798 5796 5793 5791 5788 5785 5781 5778 5774 5770 5766 5762 5759 5754 5750 5747 5743 5739 5735 5731 5727 5724 5721 5719
5822 5822 5820 5819 5818 5817 5816 5818 5817 5816 5815 5814 5813 5812 5811 5810 5808 5807 5806 5804 5802 5800 5799 5797 5795 5793 5791 5788 5786 5783 5780 5777 5773 5769 5766 5762 5758 5754 5750 5746 5742 5738 5734 5730 5727 5723 5719 5716 5713
5817 5817 5816 5815 5814 5813 5811 5814 5812 5811 5809 5808 5808 5807 5806 5805 5803 5801 5800 5799 5796 5794 5793 5792 5790 5788 5786 5784 5781 5778 5775 5772 5768 5765 5761 5757 5754 5750 5746 5742 5738 5734 5730 5726 5722 5718 5715 5712 5709